Вернуться в каталог

COSMOS 1564

АктивенНавигацияLEO
NORAD 15003·PAYLOAD·🇷🇺 Russia

Запущен May 28, 1984 с Plesetsk Cosmodrome

Loading…

Ближайшие Пролёты (ближайшие 24 часа)

TLE

СвежийSource: Space-Track

Эпоха: Sep 14, 2026, 10:10 UTC

1 15003U 84052F   26257.42386066 -.00000023  00000-0 -44413-4 0  9992
2 15003  74.0111  58.3399 0032776 172.9950 214.3472 12.53586842935453

Отслеживайте COSMOS 1564 в реальном времени с AllMySat

Download on the App Store